Weather History for Mountain Home, AR

Change the Weather History Date:

Monday, March 31, 2014

  Actual Average (KHRO) Record (KHRO)
Temperature  
Mean Temperature 56 °F 54 °F  
Max Temperature 64 °F 65 °F 87 °F (1974)
Min Temperature 48 °F 42 °F 22 °F (1987)
Degree Days  
Heating Degree Days 9 12  
Month to date heating degree days 508  
Since 1 July heating degree days 3680  
Cooling Degree Days 0 0  
Month to date cooling degree days 6  
Year to date cooling degree days 6  
Growing Degree Days 6 (Base 50)    
Moisture  
Dew Point 41 °F    
Average Humidity 61    
Maximum Humidity 77    
Minimum Humidity 29    
Precipitation  
Precipitation 0.11 in 0.14 in 1.65 in (1926)
Month to date precipitation 3.79  
Year to date precipitation 8.99  
Snow  
Snow 0.00 in 0.00 in 3.00 in (1926)
Month to date snowfall 2.0  
Since 1 July snowfall 11.2  
Snow Depth -    
Sea Level Pressure  
Sea Level Pressure 29.93 in    
Wind  
Wind Speed 7 mph (South)    
Max Wind Speed 18 mph    
Max Gust Speed 24 mph    
Visibility 8 miles    
Events Rain , Thunderstorm    
T = Trace of Precipitation, MM = Missing Value Source: NWS Daily Summary

Daily Weather History Graph

Daily Weather History Graph

Search for Another Location

Airport:

Trip Planner

Search our weather history database for the weather conditions in past years. The results will help you decide how hot, cold, wet, or windy it might be!

Date:

Astronomy

Mar. 31, 2014 Rise Set
Actual Time 6:57 AM CDT 7:31 PM CDT
Civil Twilight 6:31 AM CDT 7:57 PM CDT
Nautical Twilight 6:01 AM CDT 8:27 PM CDT
Astronomical Twilight 5:29 AM CDT 8:58 PM CDT
Moon 7:22 AM CDT (3/31) 8:47 PM CDT (3/31)
Length of Visible Light 13h 25m
Length of Day
12h 33m
New Moon, 1% of the Moon is Illuminated
Mar 31
New Moon
Apr 7
First Quarter
Apr 15
Full
Apr 22
Last Quarter
Apr 29
New

Hourly Weather History & Observations

Time (CDT) Temp. Dew Point Humidity Pressure Visibility Wind Dir Wind Speed Gust Speed Precip Events Conditions
12:53 AM 50.0 °F 39.0 °F 66% 30.02 in 10.0 mi SSE 5.8 mph - N/A   Clear
1:53 AM 48.9 °F 39.0 °F 69% 30.00 in 10.0 mi SE 6.9 mph - N/A   Clear
2:53 AM 48.9 °F 39.0 °F 69% 29.97 in 10.0 mi SSE 6.9 mph - N/A   Clear
3:53 AM 50.0 °F 39.0 °F 66% 29.95 in 10.0 mi SSE 9.2 mph - N/A   Clear
4:53 AM 48.9 °F 39.0 °F 69% 29.95 in 10.0 mi SSE 5.8 mph - N/A   Clear
5:53 AM 48.9 °F 39.0 °F 69% 29.94 in 10.0 mi SSE 8.1 mph - N/A   Clear
6:53 AM 48.9 °F 39.0 °F 69% 29.95 in 10.0 mi SE 6.9 mph - N/A   Clear
7:53 AM 50.0 °F 39.9 °F 68% 29.97 in 9.0 mi SSE 6.9 mph - N/A   Clear
8:53 AM 51.1 °F 39.9 °F 66% 29.99 in 9.0 mi SE 6.9 mph - N/A   Clear
9:53 AM 53.1 °F 41.0 °F 64% 29.99 in 9.0 mi SSE 8.1 mph - N/A   Overcast
10:53 AM 55.9 °F 35.1 °F 45% 29.96 in 10.0 mi South 12.7 mph 21.9 mph N/A   Overcast
11:53 AM 57.9 °F 32.0 °F 37% 29.91 in 10.0 mi SSE 18.4 mph 24.2 mph N/A   Overcast
12:53 PM 64.0 °F 30.9 °F 29% 29.88 in 10.0 mi South 12.7 mph 23.0 mph N/A   Mostly Cloudy
1:53 PM 63.0 °F 34.0 °F 34% 29.92 in 10.0 mi South 6.9 mph - 0.00 in Rain Light Rain
2:30 PM 60.8 °F 39.2 °F 45% 29.91 in 10.0 mi Calm Calm - 0.00 in Rain , Thunderstorm Light Rain
2:49 PM 57.2 °F 46.4 °F 67% 29.89 in 5.0 mi Calm Calm - 0.00 in Rain Light Rain
2:53 PM 57.9 °F 45.0 °F 62% 29.88 in 6.0 mi ENE 4.6 mph - 0.00 in Rain Light Rain
3:10 PM 57.2 °F 44.6 °F 63% 29.92 in 9.0 mi SW 5.8 mph - 0.00 in Rain , Thunderstorm Light Rain
3:21 PM 55.4 °F 44.6 °F 67% 29.93 in 1.8 mi SW 6.9 mph - 0.04 in Rain , Thunderstorm Heavy Rain
3:28 PM 55.4 °F 44.6 °F 67% 29.89 in 3.0 mi South 9.2 mph - 0.06 in Rain , Thunderstorm Thunderstorms and Rain
3:53 PM 53.1 °F 46.0 °F 77% 29.84 in 5.0 mi SSE 6.9 mph - 0.11 in Rain Rain
4:53 PM 59.0 °F 46.0 °F 62% 29.86 in 10.0 mi South 8.1 mph - 0.00 in   Partly Cloudy
5:53 PM 61.0 °F 43.0 °F 52% 29.86 in 10.0 mi SSW 8.1 mph - N/A   Clear
6:53 PM 60.1 °F 42.1 °F 51% 29.89 in 10.0 mi SW 4.6 mph - N/A   Mostly Cloudy
7:53 PM 57.9 °F 43.0 °F 58% 29.91 in 10.0 mi Calm Calm - N/A   Overcast
8:53 PM 57.0 °F 44.1 °F 62% 29.91 in 8.0 mi South 4.6 mph - N/A   Partly Cloudy
9:53 PM 57.0 °F 46.0 °F 67% 29.92 in 7.0 mi South 4.6 mph - N/A   Clear
10:53 PM 57.0 °F 48.0 °F 72% 29.94 in 7.0 mi SSW 3.5 mph - N/A   Partly Cloudy
11:53 PM 55.9 °F 48.0 °F 75% 29.97 in 7.0 mi Calm Calm - N/A   Partly Cloudy